Change the Weather History Date:

Thursday, November 1, 2012

  Actual Average (KGHW) Record (KGHW)
Temperature  
Mean Temperature 35 °F -  
Max Temperature 44 °F 48 °F 68 °F (1958)
Min Temperature 26 °F 31 °F 7 °F (1951)
Degree Days  
Heating Degree Days 30    
Moisture  
Dew Point 26 °F    
Average Humidity 68    
Maximum Humidity 87    
Minimum Humidity 45    
Precipitation  
Precipitation 0.00 in - - ()
Sea Level Pressure  
Sea Level Pressure 30.01 in    
Wind  
Wind Speed 10 mph (North)    
Max Wind Speed 18 mph    
Max Gust Speed 21 mph    
Visibility 10 miles    
Events      
Averages and records for this station are not official NWS values.
T = Trace of Precipitation, MM = Missing Value Source: NWS Daily Summary

Daily Weather History Graph

Daily Weather History Graph

Search for Another Location

Airport or City:

Trip Planner

Search our weather history database for the weather conditions in past years. The results will help you decide how hot, cold, wet, or windy it might be!

Date:

Astronomy

Nov. 01, 2012 Rise Set
Actual Time 8:00 AM CDT 6:05 PM CDT
Civil Twilight 7:29 AM CDT 6:36 PM CDT
Nautical Twilight 6:54 AM CDT 7:11 PM CDT
Astronomical Twilight 6:19 AM CDT 7:46 PM CDT
Moon 7:56 PM CDT (11/1) 10:40 AM CDT (11/1)
Length of Visible Light 11h 07m
Length of Day
10h 05m
Waning Gibbous, 93% of the Moon is Illuminated
Nov 1
Waning Gibbous
Nov 6
Last Quarter
Nov 13
New
Nov 20
First Quarter
Nov 28
Full

Hourly Weather History & Observations

Time (CDT) Temp. Windchill Dew Point Humidity Pressure Visibility Wind Dir Wind Speed Gust Speed Precip Events Conditions
12:15 AM 44.6 °F 39.7 °F 33.8 °F 66% 29.94 in 10.0 mi NNW 9.2 mph - N/A   Overcast
12:35 AM 42.8 °F 37.5 °F 33.8 °F 70% 29.95 in 10.0 mi NNW 9.2 mph - N/A   Scattered Clouds
12:55 AM 42.8 °F 38.0 °F 33.8 °F 70% 29.95 in 10.0 mi NW 8.1 mph - N/A   Scattered Clouds
1:15 AM 41.0 °F 34.7 °F 33.8 °F 76% 29.96 in 10.0 mi NW 10.4 mph - N/A   Scattered Clouds
1:35 AM 41.0 °F 34.7 °F 33.8 °F 76% 29.96 in 10.0 mi NW 10.4 mph - N/A   Clear
1:55 AM 39.2 °F 32.0 °F 33.8 °F 81% 29.96 in 10.0 mi NNW 11.5 mph - N/A   Clear
2:15 AM 37.4 °F 29.8 °F 33.8 °F 87% 29.97 in 10.0 mi NNW 11.5 mph - N/A   Clear
2:35 AM 37.4 °F 32.1 °F 33.8 °F 87% 29.97 in 10.0 mi NNW 6.9 mph - N/A   Clear
2:55 AM 37.4 °F 30.8 °F 33.8 °F 87% 29.97 in 10.0 mi NNW 9.2 mph - N/A   Mostly Cloudy
3:15 AM 39.2 °F 31.6 °F 33.8 °F 81% 29.97 in 10.0 mi NW 12.7 mph - N/A   Overcast
3:35 AM 41.0 °F 34.3 °F 33.8 °F 76% 29.97 in 10.0 mi NW 11.5 mph - N/A   Overcast
3:55 AM 39.2 °F 30.8 °F 33.8 °F 81% 29.98 in 10.0 mi NW 15.0 mph 19.6 mph N/A   Overcast
4:15 AM 39.2 °F 31.6 °F 33.8 °F 81% 29.98 in 10.0 mi NW 12.7 mph 20.7 mph N/A   Overcast
4:35 AM 39.2 °F 32.5 °F 33.8 °F 81% 29.97 in 10.0 mi NNW 10.4 mph - N/A   Overcast
5:15 AM 39.2 °F 32.0 °F 33.8 °F 81% 29.99 in 10.0 mi NNW 11.5 mph - N/A   Overcast
5:35 AM 39.2 °F 32.0 °F 33.8 °F 81% 29.99 in 10.0 mi NNW 11.5 mph - N/A   Overcast
5:55 AM 37.4 °F 29.3 °F 32.0 °F 81% 29.99 in 10.0 mi NNW 12.7 mph - N/A   Overcast
6:15 AM 37.4 °F 28.2 °F 30.2 °F 75% 30.00 in 10.0 mi NNW 16.1 mph 20.7 mph N/A   Overcast
6:35 AM 37.4 °F 29.3 °F 30.2 °F 75% 30.00 in 10.0 mi NNW 12.7 mph - N/A   Overcast
6:55 AM 37.4 °F 28.9 °F 32.0 °F 81% 30.00 in 10.0 mi NNW 13.8 mph 17.3 mph N/A   Overcast
7:15 AM 35.6 °F 26.2 °F 30.2 °F 81% 30.01 in 10.0 mi North 15.0 mph 20.7 mph N/A   Overcast
7:35 AM 35.6 °F 25.2 °F 28.4 °F 75% 30.01 in 10.0 mi NNW 18.4 mph - N/A   Overcast
8:35 AM 33.8 °F 23.5 °F 26.6 °F 75% 30.03 in 10.0 mi NNW 16.1 mph 20.7 mph N/A   Overcast
9:15 AM 33.8 °F 24.8 °F 26.6 °F 75% 30.03 in 10.0 mi North 12.7 mph 19.6 mph N/A   Overcast
9:35 AM 33.8 °F 24.8 °F 26.6 °F 75% 30.03 in 10.0 mi NNW 12.7 mph 16.1 mph N/A   Overcast
9:55 AM 33.8 °F 24.8 °F 26.6 °F 75% 30.04 in 10.0 mi North 12.7 mph - N/A   Overcast
10:15 AM 33.8 °F 23.5 °F 23.0 °F 65% 30.04 in 10.0 mi North 16.1 mph 20.7 mph N/A   Scattered Clouds
10:35 AM 33.8 °F 23.5 °F 23.0 °F 65% 30.04 in 10.0 mi North 16.1 mph 19.6 mph N/A   Clear
10:55 AM 35.6 °F 26.6 °F 24.8 °F 65% 30.04 in 10.0 mi North 13.8 mph 19.6 mph N/A   Scattered Clouds
11:15 AM 35.6 °F 27.1 °F 24.8 °F 65% 30.04 in 10.0 mi NNW 12.7 mph - N/A   Scattered Clouds
11:35 AM 35.6 °F 28.6 °F 24.8 °F 65% 30.04 in 10.0 mi North 9.2 mph 18.4 mph N/A   Clear
11:55 AM 35.6 °F 27.1 °F 24.8 °F 65% 30.03 in 10.0 mi North 12.7 mph 18.4 mph N/A   Scattered Clouds
12:15 PM 37.4 °F 30.8 °F 24.8 °F 60% 30.04 in 10.0 mi NNW 9.2 mph 16.1 mph N/A   Clear
12:35 PM 37.4 °F 30.8 °F 24.8 °F 60% 30.04 in 10.0 mi NNW 9.2 mph - N/A   Clear
1:15 PM 37.4 °F 29.3 °F 23.0 °F 56% 30.03 in 10.0 mi North 12.7 mph 18.4 mph N/A   Clear
1:35 PM 37.4 °F 29.3 °F 23.0 °F 56% 30.02 in 10.0 mi North 12.7 mph 17.3 mph N/A   Clear
1:55 PM 37.4 °F 28.9 °F 21.2 °F 52% 30.02 in 10.0 mi NNW 13.8 mph 18.4 mph N/A   Clear
2:15 PM 39.2 °F 31.6 °F 23.0 °F 52% 30.01 in 10.0 mi North 12.7 mph 18.4 mph N/A   Clear
2:35 PM 37.4 °F 29.8 °F 21.2 °F 52% 30.00 in 10.0 mi North 11.5 mph 17.3 mph N/A   Clear
2:55 PM 39.2 °F 31.6 °F 21.2 °F 49% 30.00 in 10.0 mi NNW 12.7 mph - N/A   Clear
3:15 PM 39.2 °F 33.6 °F 21.2 °F 49% 30.00 in 10.0 mi North 8.1 mph 17.3 mph N/A   Clear
3:35 PM 41.0 °F 35.8 °F 21.2 °F 45% 30.00 in 10.0 mi NW 8.1 mph - N/A   Clear
3:55 PM 39.2 °F 31.6 °F 21.2 °F 49% 30.00 in 10.0 mi North 12.7 mph 16.1 mph N/A   Clear
4:15 PM 39.2 °F 31.2 °F 21.2 °F 49% 30.01 in 10.0 mi North 13.8 mph - N/A   Clear
4:35 PM 39.2 °F 32.5 °F 21.2 °F 49% 30.01 in 10.0 mi North 10.4 mph - N/A   Clear
4:55 PM 37.4 °F 30.8 °F 21.2 °F 52% 30.02 in 10.0 mi North 9.2 mph - N/A   Clear
5:15 PM 37.4 °F 30.8 °F 21.2 °F 52% 30.02 in 10.0 mi North 9.2 mph - N/A   Clear
5:35 PM 35.6 °F 28.6 °F 21.2 °F 56% 30.02 in 10.0 mi NNE 9.2 mph - N/A   Clear
5:55 PM 33.8 °F 27.7 °F 21.2 °F 60% 30.02 in 10.0 mi NNE 6.9 mph - N/A   Clear
6:15 PM 33.8 °F 27.0 °F 21.2 °F 60% 30.02 in 10.0 mi NNE 8.1 mph - N/A   Clear
6:35 PM 32.0 °F 24.8 °F 21.2 °F 64% 30.02 in 10.0 mi NNE 8.1 mph - N/A   Clear
6:55 PM 32.0 °F 24.2 °F 21.2 °F 64% 30.03 in 10.0 mi North 9.2 mph - N/A   Clear
7:15 PM 32.0 °F 24.8 °F 21.2 °F 64% 30.04 in 10.0 mi North 8.1 mph - N/A   Clear
7:35 PM 32.0 °F 24.8 °F 21.2 °F 64% 30.04 in 10.0 mi North 8.1 mph - N/A   Clear
7:55 PM 32.0 °F 25.6 °F 21.2 °F 64% 30.04 in 10.0 mi North 6.9 mph - N/A   Clear
8:15 PM 32.0 °F 25.6 °F 21.2 °F 64% 30.05 in 10.0 mi North 6.9 mph - N/A   Clear
8:35 PM 30.2 °F 22.6 °F 21.2 °F 69% 30.05 in 10.0 mi NNE 8.1 mph - N/A   Clear
8:55 PM 30.2 °F 24.3 °F 21.2 °F 69% 30.04 in 10.0 mi NNE 5.8 mph - N/A   Clear
9:15 PM 30.2 °F 24.3 °F 21.2 °F 69% 30.04 in 10.0 mi NNE 5.8 mph - N/A   Clear
9:35 PM 28.4 °F 24.6 °F 21.2 °F 74% 30.05 in 10.0 mi North 3.5 mph - N/A   Clear
9:55 PM 28.4 °F - 21.2 °F 74% 30.06 in 10.0 mi Calm Calm - N/A   Clear
10:15 PM 28.4 °F 23.3 °F 21.2 °F 74% 30.06 in 10.0 mi North 4.6 mph - N/A   Clear
10:35 PM 28.4 °F 23.3 °F 21.2 °F 74% 30.06 in 10.0 mi North 4.6 mph - N/A   Clear
10:55 PM 28.4 °F 23.3 °F 21.2 °F 74% 30.05 in 10.0 mi North 4.6 mph - N/A   Clear
11:15 PM 26.6 °F 21.2 °F 21.2 °F 80% 30.06 in 10.0 mi North 4.6 mph - N/A   Clear
11:35 PM 26.6 °F 22.6 °F 21.2 °F 80% 30.07 in 10.0 mi North 3.5 mph - N/A   Clear
11:55 PM 26.6 °F 22.6 °F 21.2 °F 80% 30.07 in 10.0 mi North 3.5 mph - N/A   Clear